829  
ASUS41 KPHI 181312  
RWRPHI  
 
REGIONAL WEATHER ROUNDUP  
NATIONAL WEATHER SERVICE MOUNT HOLLY NJ  
900 AM EDT THU APR 18 2019  
 
NOTE: "FAIR" INDICATES FEW OR NO CLOUDS BELOW 12,000 FEET WITH NO  
SIGNIFICANT WEATHER AND/OR S TO VISIBILITY
.  
 
* = STATION DOES NOT REPORT PRECIPITATION (E.G. RAIN, SNOW, ETC.)  
OR FOG.
 
 
NJZ015>026-181400-  
SOUTHERN NEW JERSEY  
 
CITY SKY/WX TMP DP RH WIND PRES REMARKS
 
POMONA PTSUNNY 62 57 83 SE15G29 30.07F  
WILDWOOD* FAIR 61 55 81 MISG 30.05F  
MILLVILLE FAIR 64 57 78 SE9G18 30.05F  
MOUNT HOLLY CLOUDY 59 52 77 E6 30.08F  
TRENTON CLOUDY 56 48 74 E9 30.09F  
 

 
NJZ001>014-181400-  
NORTHERN NEW JERSEY  
 
CITY SKY/WX TMP DP RH WIND PRES REMARKS
 
SUSSEX CLOUDY 53 41 63 MISG 30.12F  
ANDOVER* N/A 52 40 63 SE12G21 30.09F  
MORRISTOWN CLOUDY 54 43 66 SE12G24 30.14F  
NEWARK LGT RAIN 54 41 61 SE7G17 30.14F  
TETERBORO CLOUDY 55 39 54 SE14 30.14S  
CALDWELL CLOUDY 54 41 61 SE13G22 30.13F  
SOMERVILLE CLOUDY 54 44 69 SE7 30.10F  
ALLAIRE* CLOUDY 54 46 74 SE8G18 30.13S  
TOMS RIVER* CLOUDY 58 53 84 SE13G22 30.10F  
 

 
PAZ043-044-047-054-055-060>062-066>071-181400-  
EASTERN PENNSYLVANIA  
 
CITY SKY/WX TMP DP RH WIND PRES REMARKS
 
PHILADELPHIA CLOUDY 59 51 75 E8 30.07F  
NORTH PHILA CLOUDY 60 50 69 E10 30.10F  
BLUE BELL* CLOUDY 55 50 82 E7 30.08F  
DOYLESTOWN CLOUDY 56 46 69 CALM 30.07F  
QUAKERTOWN* CLOUDY 54 46 76 E7 30.06  
PERKASIE* CLOUDY 54 48 82 E7 30.08F  
POTTSTOWN CLOUDY 54 46 74 VRB6 30.07F  
LANCASTER CLOUDY 56 50 80 SE8 30.03F  
COATESVILLE CLOUDY 54 50 87 E9 30.05F  
WEST CHESTER CLOUDY 55 50 82 E3 30.07S  
READING CLOUDY 55 47 74 VRB3 30.03F  
ALLENTOWN CLOUDY 55 43 63 E9 30.06F  
QN CITY/ALNTWN CLOUDY 54 45 71 E6 30.07F  
MOUNT POCONO CLOUDY 45 41 86 SE10 30.06F  
HAZLETON CLOUDY 48 43 81 SE9G21 30.05F  
LEHIGHTON CLOUDY 52 43 71 CALM 30.08F  
WILKES BARRE PTSUNNY 55 45 68 VRB6 30.04F  
 

 
DEZALL-MDZ008-012-015-019-020-181400-  
DELAWARE AND EASTERN MARYLAND  
 
CITY SKY/WX TMP DP RH WIND PRES REMARKS
 
WILMINGTON CLOUDY 60 53 77 E8 30.05F  
CHESWOLD MOSUNNY 61 55 82 SE6G12 30.03F  
GEORGETOWN FAIR 66 56 70 S12 30.04S  
EASTON MOSUNNY 63 57 82 SE5 30.06S  
STEVENSVILLE CLOUDY 59 57 94 SE7 30.02F  
ABERDEEN CLOUDY 57 55 94 E3 30.04F  
PATUXENT PTSUNNY 62 60 93 E3 30.02S  
OCEAN CITY FAIR 58 53 84 SW8 30.06R  
WALLOPS ISLAND FAIR 62 56 80 S13 30.05S  
CAMBRIDGE SUNNY 63 57 82 S9 30.02F  
SALISBURY FAIR 64 58 80 S8 30.03F  
 

 
PAZ001-021-NYZ056-072-MDZ011-DCZ001-181400-  
OTHER NEARBY LOCATIONS  
 
CITY SKY/WX TMP DP RH WIND PRES REMARKS
 
HARRISBURG CLOUDY 54 48 80 E9 30.03S  
STATE COLLEGE CLOUDY 52 46 82 S5 29.98S  
WILLIAMSPORT CLOUDY 53 45 74 E13G18 30.00F  
BINGHAMTON CLOUDY 48 39 71 S12G24 30.00R  
NEW YORK CITY CLOUDY 54 39 57 MISG 30.17  
BALTIMORE CLOUDY 56 54 93 E5 30.02F FOG  
WASHINGTON DC CLOUDY 58 52 80 CALM 30.03F  
 

 
 
 
CLICK HERE TO GO TO PREVIOUS BULLETINS.

The Nexlab PA Page
The Nexlab NJ Page
The Nexlab DE Page
The Nexlab MD Page Main Text Page